Location: Grand Lay
(47.3253°N, 0.9468°E)
Time: 01:06:23
(UTC+00:00)

BREEZE-M DEB (TANK) - Pass Details

Date: 18 January 2026
Orbit: 328 x 13406 km, 49.6° (Epoch: 5 February)

Event Time Altitude Azimuth Distance (km) Brightness Sun altitude
Exits shadow 04:43:28 59° 206° (SSW) 1,214 4.2 -28.9°
Maximum altitude 04:44:34 73° 149° (SSE) 1,270 4.5 -28.7°
Drops below altitude 10° 05:01:02 10° 69° (ENE) 7,300 9.3 -25.9°
Sets 05:11:30 0° 70° (ENE) 10,618 10.4 -24.1°
